www.pogodaiklimat.ru

Погода и климат >> Архив погоды >> Россия >> Якутия >> Иэма


ПОГОДА в Иэме

  • Прогноз погоды в Иэме
  • Монитор погоды в Иэме
  • Климат города

АРХИВ ПОГОДЫ в Иэме

Время (UTC), дата Ветер
(напр.,м/с)
 
Видим.   Явления Облачность Т
(С)
Тd
(С)
f
(%)
Тe
(С)
Тes
(С)
Комфортность P
(гПа)
Po
(гПа)
Тmin
(С)
Tmax
(С)
R
(мм)
R24
(мм)
S
(см)
00 12.12 штиль 0 50 км ясно -46.2 -48.6 76 -46 -46 опасность
обморожения
1033.1 934.1 -46.4
03 12.12 штиль 0 50 км ясно -45.8 -48.6 73 -46 -46 опасность
обморожения
1032.6 933.8
06 12.12 штиль 0 50 км ясно -45.2 -47.8 75 -45 -45 опасность
обморожения
1031.8 933.4
09 12.12 штиль 0 50 км 3/0
[Ci]
-45.2 -47.8 75 -45 -45 опасность
обморожения
1031.7 933.2 -45.2
12 12.12 штиль 0 50 км 6/0
[Ci]
-45.0 -47.8 73 -45 -45 опасность
обморожения
1031.6 933.2
15 12.12 штиль 0 20 км слабый снег 9/0
[As op Ci]
-42.6 -45.6 72 -43 -43 опасность
обморожения
1030.0 932.7
18 12.12 штиль 0 10 км слабый снег 10/0
[As op Ci]
-40.2 -42.8 76 -40 -40 опасность
обморожения
1029.1 932.9
21 12.12 штиль 0 50 км {снег} 4/0
[As trans Ci fib]
-38.5 -41.4 74 -39 -39 опасность
обморожения
1028.5 932.9 -45.3 0.5 24
00 13.12 штиль 0 50 км {снег} 4/0
[Ci fib]
-41.8 -44.4 76 -42 -42 опасность
обморожения
1030.0 933.1 -41.8
03 13.12 штиль 0 50 км 6/0
[Ci fib]
-42.1 -45.0 73 -42 -42 опасность
обморожения
1029.4 932.4
06 13.12 штиль 0 50 км 8/0
[Ci fib]
-42.8 -45.6 74 -43 -43 опасность
обморожения
1029.0 931.7
09 13.12 штиль 0 50 км 4/0
[Ci fib]
-43.0 -45.6 75 -43 -43 опасность
обморожения
1028.2 930.9 -41.8
12 13.12 штиль 0 50 км ясно -44.5 -47.0 76 -45 -45 опасность
обморожения
1027.9 930.0
15 13.12 штиль 0 50 км ясно -45.6 -48.6 71 -46 -46 опасность
обморожения
1026.8 928.6
18 13.12 штиль 0 50 км ясно -46.2 -48.6 76 -46 -46 опасность
обморожения
1026.0 927.6
21 13.12 штиль 0 50 км ясно -46.5 -49.6 70 -47 -47 опасность
обморожения
1025.1 926.7 -46.5 24
00 14.12 С 1 50 км ясно -45.8 -48.6 73 -52 -52 опасность
обморожения
1023.8 925.8
03 14.12 В 1 50 км ясно -45.4 -47.8 77 -51 -51 опасность
обморожения
1021.9 924.3
06 14.12 В 1 50 км 10/0
[Ac und]
-37.1 -40.1 73 -42 -42 опасность
обморожения
1017.4 923.4
09 14.12 В 1 50 км 10/0
[Ac und]
-35.3 -38.4 73 -40 -40 опасность
обморожения
1016.1 922.9 -35.3
12 14.12 ЮВ 3 50 км 10/0
[Ac und]
-27.7 -30.8 75 -37 -37 опасность
обморожения
1012.7 922.5
15 14.12 В 2 50 км 6/0
[Ac trans Ci fib]
-29.2 -32.2 75 -37 -37 опасность
обморожения
1012.3 921.6
18 14.12 В 3 50 км 6/0
[Ac trans Ci fib]
-29.2 -32.2 75 -39 -39 опасность
обморожения
1011.6 921.0
21 14.12 штиль 0 50 км 8/0
[Ac trans Ci fib]
-30.0 -33.0 75 -30 -30 1011.6 920.7 -35.3 24
00 15.12 С 1 50 км 8/0
[Ci fib]
-30.0 -33.0 75 -34 -34 опасность
обморожения
1011.4 920.5
03 15.12 штиль 0 50 км 4/0
[Ci fib]
-38.4 -41.4 73 -38 -38 опасность
обморожения
1014.8 920.5
06 15.12 штиль 0 50 км 6/0
[Ci fib]
-39.4 -42.3 74 -39 -39 опасность
обморожения
1015.0 920.4
09 15.12 С 2 50 км 6/0
[Ci fib]
-39.0 -41.8 75 -48 -48 опасность
обморожения
1015.1 920.6 -30.0
12 15.12 штиль 0 50 км 9/0
[Ci fib]
-35.9 -38.7 75 -36 -36 опасность
обморожения
1013.5 920.3
15 15.12 штиль 0 20 км слабый снег 10/0
[As op]
-32.8 -35.8 74 -33 -33 опасность
обморожения
1011.7 919.8
18 15.12 Ю 3 50 км {снег} 8/0
[As trans]
-23.4 -26.6 75 -32 -32 опасность
обморожения
1007.2 919.0
21 15.12 Ю 2 50 км 8/0
[As trans]
-22.4 -25.6 75 -29 -29 1006.4 918.6 -39.6 1 25
00 16.12 штиль 0 50 км 9/0
[As trans Cc]
-24.7 -27.9 75 -25 -25 1007.4 918.8
03 16.12 С 1 50 км 10/0
[As trans Cs]
-29.9 -33.0 74 -34 -34 опасность
обморожения
1009.0 918.4
06 16.12 В 2 50 км 10/0
[As trans Cs]
-27.8 -31.0 74 -35 -35 опасность
обморожения
1008.3 918.5
09 16.12 В 2 50 км 8/0
[Ci]
-30.2 -32.6 79 -38 -38 опасность
обморожения
1009.5 918.7 -22.4
12 16.12 В 2 50 км 10/0
[Cs]
-27.6 -30.0 80 -35 -35 опасность
обморожения
1008.5 918.7
15 16.12 штиль 0 50 км 8/0
[Ci fib]
-28.8 -31.2 80 -29 -29 1008.9 918.7
18 16.12 В 3 50 км 8/0
[Cs]
-27.1 -29.5 80 -36 -36 опасность
обморожения
1008.3 918.8
21 16.12 В 2 20 км слабый снег 10/0
[As op Cs]
-25.2 -27.7 80 -32 -32 опасность
обморожения
1007.7 918.8 -30.2 0.2 25
00 17.12 В 1 10 км слабый снег 10/0
[As op]
-24.6 -27.2 79 -28 -28 1007.6 919.0
03 17.12 В 2 50 км 10/0
[As op Cs]
-23.7 -27.0 74 -30 -30 1007.3 919.0
06 17.12 В 2 10 км слабый снег 10/0
[As op]
-21.3 -24.6 75 -27 -27 1006.5 919.1
09 17.12 штиль 0 20 км слабый снег 10/0
[As op]
-21.7 -24.9 75 -22 -22 1006.9 919.3 -21.3 0.5
12 17.12 Ю 2 50 км {снег} 10/0
[As trans Cs]
-20.6 -23.9 75 -27 -27 1006.5 919.3
15 17.12 Ю 1 50 км 10/0
[Cs]
-25.2 -28.4 75 -29 -29 1007.8 918.9
18 17.12 Ю 2 50 км 10/0
[Cs]
-26.0 -29.1 75 -33 -33 опасность
обморожения
1008.3 919.1
21 17.12 Ю 3 50 км 10/0
[Cs]
-26.7 -29.9 74 -36 -36 опасность
обморожения
1008.3 918.9 -26.7 0.0 25
00 18.12 Ю 2 50 км 10/0
[Cs]
-27.2 -30.3 75 -34 -34 опасность
обморожения
1008.9 919.3 -27.4
03 18.12 З 2 50 км 10/0
[Cs]
-34.8 -37.7 75 -43 -43 опасность
обморожения
1011.9 919.3
06 18.12 С 2 50 км 10/0
[Cs]
-35.6 -38.4 75 -44 -44 опасность
обморожения
1012.8 919.8
09 18.12 штиль 0 50 км 9/0
[Cs]
-37.8 -40.5 76 -38 -38 опасность
обморожения
1014.9 920.9 -26.7
12 18.12 штиль 0 50 км 9/0
[Cs]
-40.4 -43.3 73 -40 -40 опасность
обморожения
1016.4 921.3
15 18.12 штиль 0 50 км 4/0
[Ci fib]
-40.5 -43.3 74 -41 -41 опасность
обморожения
1017.8 921.7
18 18.12 штиль 0 50 км 1/0
[Ci fib]
-43.9 -46.3 77 -44 -44 опасность
обморожения
1018.3 921.5

 

Местоположение метеостанции Иэма (Якутия, Россия): широта 65.30 долгота 135.80 высота над уровнем моря 675 м.

В архиве по умолчанию представлена погода в Иэме за последнюю неделю. Архивные данные за месяц целиком и за предыдущие месяцы, начиная с января 2011 года, Вы можете получить, выбрав интересующий диапазон дат из раскрывающегося списка и нажав кнопку "Ввод!".


*Определитесь, кто Вы:
робот инопланетянин человек

Внимание! Время в таблицах - всемирное. Для получения местного времени необходимо прибавить поправку, которая в Иэме равна 9 ч.

Смотрите также архив погоды в соседних городах и на ближайших метеорологических станциях:

Погода в Томпо (Якутия, Россия) (150 км)
Погода в Усть-Чарках (Якутия, Россия) (171 км)
Погода в Екюччю (Якутия, Россия) (250 км)
Погода в Батагае (Якутия, Россия) (267 км)
Погода в Себян-Кюеле (Якутия, Россия) (269 км)
Погода в Верхоянске (Якутия, Россия) (274 км)
Погода в Крест-Хальджае (Якутия, Россия) (284 км)
Погода в Теплом Ключе (Якутия, Россия) (284 км)
Погода в Верхоянском Перевозе (Якутия, Россия) (286 км)
Погода в Восточной (Якутия, Россия) (294 км)

Пояснения к столбцам:

Ветер - указаны скорость ветра в м/с - средняя за 10 мин, порывы в срок и между сроками (в фигурных скобках) и направление, откуда дует ветер: С - северный, СВ - северо-восточный, В - восточный, ЮВ - юго-восточный, Ю - южный, ЮЗ - юго-западный, З - западный, СЗ - северо-западный.
Видимость - горизонтальная дальность видимости в метрах или километрах. При видимости от 1 до 10 км при отсутствии осадков обычно наблюдается дымка, при ухудшении видимости до 1 км и менее - туман. В сухую погоду видимость может ухудшаться дымом, пылью или мглою.
Явления - указаны атмосферные явления, наблюдавшиеся в срок или в последний час перед сроком; фигурными скобками обозначены явления, наблюдавшиеся между сроками (за 1-3 часа до срока); квадратными скобками обозначены град или гололедные отложения с указанием их диаметра в мм.
Облачность - указаны через наклонную черту общая и нижняя облачность в баллах и высота нижней границы облаков в метрах; квадратными скобками обозначены формы облаков: Ci - перистые, Cs - перисто-слоистые, Cc - перисто-кучевые, Ac - высококучевые, As - высокослоистые, Sc - слоисто-кучевые, Ns - слоисто-дождевые, Cu - кучевые, Cb - кучево-дождевые. Подробнее классификацию облаков см. в Атласе облаков (PDF).
T - Температура воздуха - температура, измеренная на высоте 2 м над землей.
Td - Температура точки росы - температура, при понижении до которой содержащийся в воздухе водяной пар достигнет насыщения.
f - Относительная влажность воздуха - влажноcть воздуха, измеренная на высоте 2 м над землей.
Te - Эффективная температура - температура, которую ощущает одетый по сезону человек в тени. Характеристика душности погоды. При расчете учитывается влияние влажности воздуха и скорости ветра на теплоощущения человека.
Tes - Эффективная температура на солнце - температура, которую ощущает человек, с поправкой на солнечный нагрев. Характеристика знойности погоды. Зависит от высоты солнца над горизонтом, облачности и скорости ветра. Ночью, в пасмурную погоду, а также при ветре 12 м/с и более поправка равна нулю.
P - Атмосферное давление - приведенное к уровню моря атмосферное давление.
Po - Атмосферное давление - измеренное на уровне метеостанции атмосферное давление.
Tmin - Минимальная температура - минимум температуры воздуха на высоте 2 м над землей.
Tmax - Максимальная температура - максимум температуры воздуха на высоте 2 м над землей.
R - Количество осадков - Количество выпавших осадков за период времени, мм. При наведении курсора мыши на число - период времени, за который выпало указанное количество осадков.
R24 - Количество осадков - Количество выпавших осадков за 24 часа, мм.
S - Снежный покров - Высота снежного покрова, см. При наведении курсора мыши на число - состояние снежного покрова и степень покрытия местности в баллах.